Weather in Dolgaya Polyana

Russia / Belgorod Oblast     51°09′06″N   37°44′58″E
temp.,
°C
wind,
m/s
gust,
m/s
humid.,
%
clouds,
%
prec.,
mm/h
press.,
hPa
HPBL,
m
18 may, tue
tue1800:00+17se24825 0.0 1007102
03:00+16s118675 0.2 100611
06:00+17e258596 0.0 1005150
09:00+20se4869100 0.0 1005502
12:00+23sse4661100 0.0 10041225
15:00+21s677794 1.1 1004856
18:00+16s4991100 2.6 1005492
21:00+15se41096100 4.8 1005332
19 may, wed
wed1900:00+14sse3892100 0.2 1005229
03:00+13se25942 0.2 1006140
06:00+13sse4109498 0.0 1007386
09:00+16se457999 0.0 1006692
12:00+19sse4563100 0.4 10071221
15:00+15sse4795100 5.5 1006473
18:00+13n229385 5.7 1005150
21:00+14ene2495100 6.1 1003204
20 may, thu
thu2000:00+12ssw6129461 5.6 1004625
03:00+12sse3797100 6.0 1005341
06:00+12sse5897100 3.0 1005399
09:00+12s5995100 4.1 1006540
12:00+14ssw6889100 0.1 1008772
15:00+16ssw577466 0.1 10091017
18:00+16wsw578033 1.1 1010924
21:00+12wsw388968 1.3 1012433
21 may, fri
fri2100:00+11wsw379124 0.0 1013350
03:00+10wsw269461 0.0 1014233
06:00+10wnw359265 0.0 1015212
09:00+13wnw3371100 0.0 1016703
12:00+17nnw1257100 0.0 10151050
15:00+19nne2152100 0.0 10151154
18:00+17e2364100 0.0 1015350
21:00+15ene4879100 0.2 1015224
22 may, sat
sat2200:00+14ne4980100 0.1 1016271
03:00+14ne61382100 0.1 1014413
06:00+14ene71587100 0.0 1014613
09:00+17ene81376100 0.0 1013850
12:00+21ene686688 0.1 10131398
15:00+23ene5758100 0.1 10111419
18:00+22ne4776100 0.0 1011365
21:00+16nne5991100 0.0 1012261